Index of /20260423/WXO-DD/model_gdps/15km/12/045
Name Last modified Size Description
Parent Directory -
20260423T12Z_MSC_GDPS_AbsoluteVorticity_IsbL-0200_LatLon0.15_PT045H.grib2 2026-04-23 16:09 1.5M
20260423T12Z_MSC_GDPS_AbsoluteVorticity_IsbL-0250_LatLon0.15_PT045H.grib2 2026-04-23 16:09 1.3M
20260423T12Z_MSC_GDPS_AbsoluteVorticity_IsbL-0500_LatLon0.15_PT045H.grib2 2026-04-23 16:09 1.5M
20260423T12Z_MSC_GDPS_AbsoluteVorticity_IsbL-0700_LatLon0.15_PT045H.grib2 2026-04-23 16:09 1.3M
20260423T12Z_MSC_GDPS_AbsoluteVorticity_IsbL-0850_LatLon0.15_PT045H.grib2 2026-04-23 16:09 1.6M
20260423T12Z_MSC_GDPS_AirTemp_AGL-120m_LatLon0.15_PT045H.grib2 2026-04-23 16:09 907K
20260423T12Z_MSC_GDPS_AirTemp_AGL-2m_LatLon0.15_PT045H.grib2 2026-04-23 16:09 1.0M
20260423T12Z_MSC_GDPS_AirTemp_AGL-40m_LatLon0.15_PT045H.grib2 2026-04-23 16:09 809K
20260423T12Z_MSC_GDPS_AirTemp_AGL-80m_LatLon0.15_PT045H.grib2 2026-04-23 16:09 798K
20260423T12Z_MSC_GDPS_AirTemp_IsbL-0001_LatLon0.15_PT045H.grib2 2026-04-23 16:09 646K
20260423T12Z_MSC_GDPS_AirTemp_IsbL-0005_LatLon0.15_PT045H.grib2 2026-04-23 16:09 688K
20260423T12Z_MSC_GDPS_AirTemp_IsbL-0010_LatLon0.15_PT045H.grib2 2026-04-23 16:09 760K
20260423T12Z_MSC_GDPS_AirTemp_IsbL-0020_LatLon0.15_PT045H.grib2 2026-04-23 16:09 699K
20260423T12Z_MSC_GDPS_AirTemp_IsbL-0030_LatLon0.15_PT045H.grib2 2026-04-23 16:09 754K
20260423T12Z_MSC_GDPS_AirTemp_IsbL-0050_LatLon0.15_PT045H.grib2 2026-04-23 16:09 812K
20260423T12Z_MSC_GDPS_AirTemp_IsbL-0100_LatLon0.15_PT045H.grib2 2026-04-23 16:09 1.0M
20260423T12Z_MSC_GDPS_AirTemp_IsbL-0150_LatLon0.15_PT045H.grib2 2026-04-23 16:09 969K
20260423T12Z_MSC_GDPS_AirTemp_IsbL-0175_LatLon0.15_PT045H.grib2 2026-04-23 16:09 959K
20260423T12Z_MSC_GDPS_AirTemp_IsbL-0200_LatLon0.15_PT045H.grib2 2026-04-23 16:09 969K
20260423T12Z_MSC_GDPS_AirTemp_IsbL-0225_LatLon0.15_PT045H.grib2 2026-04-23 16:09 971K
20260423T12Z_MSC_GDPS_AirTemp_IsbL-0250_LatLon0.15_PT045H.grib2 2026-04-23 16:09 1.0M
20260423T12Z_MSC_GDPS_AirTemp_IsbL-0275_LatLon0.15_PT045H.grib2 2026-04-23 16:09 1.0M
20260423T12Z_MSC_GDPS_AirTemp_IsbL-0300_LatLon0.15_PT045H.grib2 2026-04-23 16:09 1.0M
20260423T12Z_MSC_GDPS_AirTemp_IsbL-0350_LatLon0.15_PT045H.grib2 2026-04-23 16:09 932K
20260423T12Z_MSC_GDPS_AirTemp_IsbL-0400_LatLon0.15_PT045H.grib2 2026-04-23 16:09 943K
20260423T12Z_MSC_GDPS_AirTemp_IsbL-0450_LatLon0.15_PT045H.grib2 2026-04-23 16:09 963K
20260423T12Z_MSC_GDPS_AirTemp_IsbL-0500_LatLon0.15_PT045H.grib2 2026-04-23 16:09 1.0M
20260423T12Z_MSC_GDPS_AirTemp_IsbL-0550_LatLon0.15_PT045H.grib2 2026-04-23 16:09 800K
20260423T12Z_MSC_GDPS_AirTemp_IsbL-0600_LatLon0.15_PT045H.grib2 2026-04-23 16:09 890K
20260423T12Z_MSC_GDPS_AirTemp_IsbL-0650_LatLon0.15_PT045H.grib2 2026-04-23 16:09 913K
20260423T12Z_MSC_GDPS_AirTemp_IsbL-0700_LatLon0.15_PT045H.grib2 2026-04-23 16:09 946K
20260423T12Z_MSC_GDPS_AirTemp_IsbL-0750_LatLon0.15_PT045H.grib2 2026-04-23 16:09 1.0M
20260423T12Z_MSC_GDPS_AirTemp_IsbL-0800_LatLon0.15_PT045H.grib2 2026-04-23 16:09 1.1M
20260423T12Z_MSC_GDPS_AirTemp_IsbL-0850_LatLon0.15_PT045H.grib2 2026-04-23 16:09 1.1M
20260423T12Z_MSC_GDPS_AirTemp_IsbL-0875_LatLon0.15_PT045H.grib2 2026-04-23 16:09 1.2M
20260423T12Z_MSC_GDPS_AirTemp_IsbL-0900_LatLon0.15_PT045H.grib2 2026-04-23 16:09 1.1M
20260423T12Z_MSC_GDPS_AirTemp_IsbL-0925_LatLon0.15_PT045H.grib2 2026-04-23 16:09 1.1M
20260423T12Z_MSC_GDPS_AirTemp_IsbL-0950_LatLon0.15_PT045H.grib2 2026-04-23 16:09 1.1M
20260423T12Z_MSC_GDPS_AirTemp_IsbL-0970_LatLon0.15_PT045H.grib2 2026-04-23 16:09 1.2M
20260423T12Z_MSC_GDPS_AirTemp_IsbL-0985_LatLon0.15_PT045H.grib2 2026-04-23 16:09 1.1M
20260423T12Z_MSC_GDPS_AirTemp_IsbL-1000_LatLon0.15_PT045H.grib2 2026-04-23 16:09 1.1M
20260423T12Z_MSC_GDPS_AirTemp_IsbL-1015_LatLon0.15_PT045H.grib2 2026-04-23 16:09 1.1M
20260423T12Z_MSC_GDPS_Albedo_Sfc_LatLon0.15_PT045H.grib2 2026-04-23 16:09 245K
20260423T12Z_MSC_GDPS_CAPE_Sfc_LatLon0.15_PT045H.grib2 2026-04-23 16:09 3.9M
20260423T12Z_MSC_GDPS_CIN_Sfc_LatLon0.15_PT045H.grib2 2026-04-23 16:09 3.0M
20260423T12Z_MSC_GDPS_CloudWater_EAtm_LatLon0.15_PT045H.grib2 2026-04-23 16:09 533K
20260423T12Z_MSC_GDPS_ConvectivePrecip-Accum_Sfc_LatLon0.15_PT045H.grib2 2026-04-23 16:09 2.7M
20260423T12Z_MSC_GDPS_DewPointDepression_AGL-2m_LatLon0.15_PT045H.grib2 2026-04-23 16:09 758K
20260423T12Z_MSC_GDPS_DewPointDepression_IsbL-0010_LatLon0.15_PT045H.grib2 2026-04-23 16:09 52K
20260423T12Z_MSC_GDPS_DewPointDepression_IsbL-0020_LatLon0.15_PT045H.grib2 2026-04-23 16:09 75K
20260423T12Z_MSC_GDPS_DewPointDepression_IsbL-0030_LatLon0.15_PT045H.grib2 2026-04-23 16:09 79K
20260423T12Z_MSC_GDPS_DewPointDepression_IsbL-0050_LatLon0.15_PT045H.grib2 2026-04-23 16:09 361K
20260423T12Z_MSC_GDPS_DewPointDepression_IsbL-0100_LatLon0.15_PT045H.grib2 2026-04-23 16:09 399K
20260423T12Z_MSC_GDPS_DewPointDepression_IsbL-0150_LatLon0.15_PT045H.grib2 2026-04-23 16:09 474K
20260423T12Z_MSC_GDPS_DewPointDepression_IsbL-0175_LatLon0.15_PT045H.grib2 2026-04-23 16:09 557K
20260423T12Z_MSC_GDPS_DewPointDepression_IsbL-0200_LatLon0.15_PT045H.grib2 2026-04-23 16:09 645K
20260423T12Z_MSC_GDPS_DewPointDepression_IsbL-0225_LatLon0.15_PT045H.grib2 2026-04-23 16:09 762K
20260423T12Z_MSC_GDPS_DewPointDepression_IsbL-0250_LatLon0.15_PT045H.grib2 2026-04-23 16:09 856K
20260423T12Z_MSC_GDPS_DewPointDepression_IsbL-0275_LatLon0.15_PT045H.grib2 2026-04-23 16:09 892K
20260423T12Z_MSC_GDPS_DewPointDepression_IsbL-0300_LatLon0.15_PT045H.grib2 2026-04-23 16:09 945K
20260423T12Z_MSC_GDPS_DewPointDepression_IsbL-0350_LatLon0.15_PT045H.grib2 2026-04-23 16:09 1.0M
20260423T12Z_MSC_GDPS_DewPointDepression_IsbL-0400_LatLon0.15_PT045H.grib2 2026-04-23 16:09 1.0M
20260423T12Z_MSC_GDPS_DewPointDepression_IsbL-0450_LatLon0.15_PT045H.grib2 2026-04-23 16:09 1.0M
20260423T12Z_MSC_GDPS_DewPointDepression_IsbL-0500_LatLon0.15_PT045H.grib2 2026-04-23 16:09 1.0M
20260423T12Z_MSC_GDPS_DewPointDepression_IsbL-0550_LatLon0.15_PT045H.grib2 2026-04-23 16:09 1.0M
20260423T12Z_MSC_GDPS_DewPointDepression_IsbL-0600_LatLon0.15_PT045H.grib2 2026-04-23 16:09 1.0M
20260423T12Z_MSC_GDPS_DewPointDepression_IsbL-0650_LatLon0.15_PT045H.grib2 2026-04-23 16:09 1.1M
20260423T12Z_MSC_GDPS_DewPointDepression_IsbL-0700_LatLon0.15_PT045H.grib2 2026-04-23 16:09 1.1M
20260423T12Z_MSC_GDPS_DewPointDepression_IsbL-0750_LatLon0.15_PT045H.grib2 2026-04-23 16:09 1.1M
20260423T12Z_MSC_GDPS_DewPointDepression_IsbL-0800_LatLon0.15_PT045H.grib2 2026-04-23 16:09 1.2M
20260423T12Z_MSC_GDPS_DewPointDepression_IsbL-0850_LatLon0.15_PT045H.grib2 2026-04-23 16:09 1.1M
20260423T12Z_MSC_GDPS_DewPointDepression_IsbL-0875_LatLon0.15_PT045H.grib2 2026-04-23 16:09 1.1M
20260423T12Z_MSC_GDPS_DewPointDepression_IsbL-0900_LatLon0.15_PT045H.grib2 2026-04-23 16:09 1.1M
20260423T12Z_MSC_GDPS_DewPointDepression_IsbL-0925_LatLon0.15_PT045H.grib2 2026-04-23 16:09 1.0M
20260423T12Z_MSC_GDPS_DewPointDepression_IsbL-0950_LatLon0.15_PT045H.grib2 2026-04-23 16:09 1.0M
20260423T12Z_MSC_GDPS_DewPointDepression_IsbL-0970_LatLon0.15_PT045H.grib2 2026-04-23 16:09 1.0M
20260423T12Z_MSC_GDPS_DewPointDepression_IsbL-0985_LatLon0.15_PT045H.grib2 2026-04-23 16:09 1.0M
20260423T12Z_MSC_GDPS_DewPointDepression_IsbL-1000_LatLon0.15_PT045H.grib2 2026-04-23 16:09 1.0M
20260423T12Z_MSC_GDPS_DewPointDepression_IsbL-1015_LatLon0.15_PT045H.grib2 2026-04-23 16:09 916K
20260423T12Z_MSC_GDPS_DewPoint_AGL-2m_LatLon0.15_PT045H.grib2 2026-04-23 16:09 610K
20260423T12Z_MSC_GDPS_DownwardLongwaveRadiationFlux-Accum_Sfc_LatLon0.15_PT045H.grib2 2026-04-23 16:09 771K
20260423T12Z_MSC_GDPS_DownwardShortwaveRadiationFlux-Accum_NTAtm_LatLon0.15_PT045H.grib2 2026-04-23 16:09 276K
20260423T12Z_MSC_GDPS_DownwardShortwaveRadiationFlux-Accum_Sfc_LatLon0.15_PT045H.grib2 2026-04-23 16:09 1.0M
20260423T12Z_MSC_GDPS_FreezingRain-Accum1h_Sfc_LatLon0.15_PT045H.grib2 2026-04-23 16:09 48K
20260423T12Z_MSC_GDPS_FreezingRain-Accum3h_Sfc_LatLon0.15_PT045H.grib2 2026-04-23 16:09 60K
20260423T12Z_MSC_GDPS_FreezingRain-Accum_Sfc_LatLon0.15_PT045H.grib2 2026-04-23 16:09 219K
20260423T12Z_MSC_GDPS_GeopotentialHeight_IsbL-0001_LatLon0.15_PT045H.grib2 2026-04-23 16:09 408K
20260423T12Z_MSC_GDPS_GeopotentialHeight_IsbL-0005_LatLon0.15_PT045H.grib2 2026-04-23 16:09 498K
20260423T12Z_MSC_GDPS_GeopotentialHeight_IsbL-0010_LatLon0.15_PT045H.grib2 2026-04-23 16:09 485K
20260423T12Z_MSC_GDPS_GeopotentialHeight_IsbL-0020_LatLon0.15_PT045H.grib2 2026-04-23 16:09 574K
20260423T12Z_MSC_GDPS_GeopotentialHeight_IsbL-0030_LatLon0.15_PT045H.grib2 2026-04-23 16:09 578K
20260423T12Z_MSC_GDPS_GeopotentialHeight_IsbL-0050_LatLon0.15_PT045H.grib2 2026-04-23 16:09 573K
20260423T12Z_MSC_GDPS_GeopotentialHeight_IsbL-0100_LatLon0.15_PT045H.grib2 2026-04-23 16:09 606K
20260423T12Z_MSC_GDPS_GeopotentialHeight_IsbL-0150_LatLon0.15_PT045H.grib2 2026-04-23 16:09 625K
20260423T12Z_MSC_GDPS_GeopotentialHeight_IsbL-0175_LatLon0.15_PT045H.grib2 2026-04-23 16:09 631K
20260423T12Z_MSC_GDPS_GeopotentialHeight_IsbL-0200_LatLon0.15_PT045H.grib2 2026-04-23 16:09 636K
20260423T12Z_MSC_GDPS_GeopotentialHeight_IsbL-0225_LatLon0.15_PT045H.grib2 2026-04-23 16:09 633K
20260423T12Z_MSC_GDPS_GeopotentialHeight_IsbL-0250_LatLon0.15_PT045H.grib2 2026-04-23 16:09 642K
20260423T12Z_MSC_GDPS_GeopotentialHeight_IsbL-0275_LatLon0.15_PT045H.grib2 2026-04-23 16:09 640K
20260423T12Z_MSC_GDPS_GeopotentialHeight_IsbL-0300_LatLon0.15_PT045H.grib2 2026-04-23 16:09 639K
20260423T12Z_MSC_GDPS_GeopotentialHeight_IsbL-0350_LatLon0.15_PT045H.grib2 2026-04-23 16:09 630K
20260423T12Z_MSC_GDPS_GeopotentialHeight_IsbL-0400_LatLon0.15_PT045H.grib2 2026-04-23 16:09 620K
20260423T12Z_MSC_GDPS_GeopotentialHeight_IsbL-0450_LatLon0.15_PT045H.grib2 2026-04-23 16:09 541K
20260423T12Z_MSC_GDPS_GeopotentialHeight_IsbL-0500_LatLon0.15_PT045H.grib2 2026-04-23 16:09 530K
20260423T12Z_MSC_GDPS_GeopotentialHeight_IsbL-0550_LatLon0.15_PT045H.grib2 2026-04-23 16:09 521K
20260423T12Z_MSC_GDPS_GeopotentialHeight_IsbL-0600_LatLon0.15_PT045H.grib2 2026-04-23 16:09 680K
20260423T12Z_MSC_GDPS_GeopotentialHeight_IsbL-0650_LatLon0.15_PT045H.grib2 2026-04-23 16:09 679K
20260423T12Z_MSC_GDPS_GeopotentialHeight_IsbL-0700_LatLon0.15_PT045H.grib2 2026-04-23 16:09 678K
20260423T12Z_MSC_GDPS_GeopotentialHeight_IsbL-0750_LatLon0.15_PT045H.grib2 2026-04-23 16:09 678K
20260423T12Z_MSC_GDPS_GeopotentialHeight_IsbL-0800_LatLon0.15_PT045H.grib2 2026-04-23 16:09 694K
20260423T12Z_MSC_GDPS_GeopotentialHeight_IsbL-0850_LatLon0.15_PT045H.grib2 2026-04-23 16:09 701K
20260423T12Z_MSC_GDPS_GeopotentialHeight_IsbL-0875_LatLon0.15_PT045H.grib2 2026-04-23 16:09 707K
20260423T12Z_MSC_GDPS_GeopotentialHeight_IsbL-0900_LatLon0.15_PT045H.grib2 2026-04-23 16:09 716K
20260423T12Z_MSC_GDPS_GeopotentialHeight_IsbL-0925_LatLon0.15_PT045H.grib2 2026-04-23 16:09 725K
20260423T12Z_MSC_GDPS_GeopotentialHeight_IsbL-0950_LatLon0.15_PT045H.grib2 2026-04-23 16:09 731K
20260423T12Z_MSC_GDPS_GeopotentialHeight_IsbL-0970_LatLon0.15_PT045H.grib2 2026-04-23 16:09 742K
20260423T12Z_MSC_GDPS_GeopotentialHeight_IsbL-0985_LatLon0.15_PT045H.grib2 2026-04-23 16:09 759K
20260423T12Z_MSC_GDPS_GeopotentialHeight_IsbL-1000_LatLon0.15_PT045H.grib2 2026-04-23 16:09 782K
20260423T12Z_MSC_GDPS_GeopotentialHeight_IsbL-1015_LatLon0.15_PT045H.grib2 2026-04-23 16:09 805K
20260423T12Z_MSC_GDPS_Humidex_Sfc_LatLon0.15_PT045H.grib2 2026-04-23 16:09 5.3M
20260423T12Z_MSC_GDPS_IcePellets-Accum1h_Sfc_LatLon0.15_PT045H.grib2 2026-04-23 16:09 27K
20260423T12Z_MSC_GDPS_IcePellets-Accum3h_Sfc_LatLon0.15_PT045H.grib2 2026-04-23 16:09 32K
20260423T12Z_MSC_GDPS_IcePellets-Accum_Sfc_LatLon0.15_PT045H.grib2 2026-04-23 16:09 76K
20260423T12Z_MSC_GDPS_KIndex_Sfc_LatLon0.15_PT045H.grib2 2026-04-23 16:09 6.5M
20260423T12Z_MSC_GDPS_LatentHeatNetFlux_Sfc_LatLon0.15_PT045H.grib2 2026-04-23 16:09 548K
20260423T12Z_MSC_GDPS_LiftedIndex-MU-VT_IsbL-0500_LatLon0.15_PT045H.grib2 2026-04-23 16:09 5.4M
20260423T12Z_MSC_GDPS_NetLongwaveRadiationFlux-Accum_Sfc_LatLon0.15_PT045H.grib2 2026-04-23 16:09 1.1M
20260423T12Z_MSC_GDPS_NetShortwaveRadiationFlux-Accum_Sfc_LatLon0.15_PT045H.grib2 2026-04-23 16:09 1.0M
20260423T12Z_MSC_GDPS_O3MixingRatio_LatLon0.15_PT045H.grib2 2026-04-23 16:51 2.3M
20260423T12Z_MSC_GDPS_O3_EAtm_LatLon0.15_PT045H.grib2 2026-04-23 16:51 2.5M
20260423T12Z_MSC_GDPS_PlanetaryBoundaryLayerHeight_Sfc_LatLon0.15_PT045H.grib2 2026-04-23 16:09 2.5M
20260423T12Z_MSC_GDPS_Precip-Accum1h_Sfc_LatLon0.15_PT045H.grib2 2026-04-23 16:09 3.3M
20260423T12Z_MSC_GDPS_Precip-Accum3h_Sfc_LatLon0.15_PT045H.grib2 2026-04-23 16:09 3.6M
20260423T12Z_MSC_GDPS_Precip-Accum_Sfc_LatLon0.15_PT045H.grib2 2026-04-23 16:09 4.8M
20260423T12Z_MSC_GDPS_PrecipRate_Sfc_LatLon0.15_PT045H.grib2 2026-04-23 16:09 3.1M
20260423T12Z_MSC_GDPS_PrecipType-Instant_Sfc_LatLon0.15_PT045H.grib2 2026-04-23 16:09 1.6M
20260423T12Z_MSC_GDPS_Pressure_MSL_LatLon0.15_PT045H.grib2 2026-04-23 16:09 826K
20260423T12Z_MSC_GDPS_Pressure_PVU-1.5_LatLon0.15_PT045H.grib2 2026-04-23 16:09 5.8M
20260423T12Z_MSC_GDPS_Pressure_PVU-1_LatLon0.15_PT045H.grib2 2026-04-23 16:09 6.0M
20260423T12Z_MSC_GDPS_Pressure_PVU-2_LatLon0.15_PT045H.grib2 2026-04-23 16:09 5.6M
20260423T12Z_MSC_GDPS_Pressure_Sfc_LatLon0.15_PT045H.grib2 2026-04-23 16:09 1.1M
20260423T12Z_MSC_GDPS_RadiativeTemp_Sfc_LatLon0.15_PT045H.grib2 2026-04-23 16:09 501K
20260423T12Z_MSC_GDPS_Rain-Accum1h_Sfc_LatLon0.15_PT045H.grib2 2026-04-23 16:09 1.7M
20260423T12Z_MSC_GDPS_Rain-Accum3h_Sfc_LatLon0.15_PT045H.grib2 2026-04-23 16:09 1.9M
20260423T12Z_MSC_GDPS_Rain-Accum_Sfc_LatLon0.15_PT045H.grib2 2026-04-23 16:09 3.5M
20260423T12Z_MSC_GDPS_RelativeHumidity_AGL-2m_LatLon0.15_PT045H.grib2 2026-04-23 16:09 1.1M
20260423T12Z_MSC_GDPS_RelativeHumidity_IsbL-0010_LatLon0.15_PT045H.grib2 2026-04-23 16:09 268K
20260423T12Z_MSC_GDPS_RelativeHumidity_IsbL-0020_LatLon0.15_PT045H.grib2 2026-04-23 16:09 287K
20260423T12Z_MSC_GDPS_RelativeHumidity_IsbL-0030_LatLon0.15_PT045H.grib2 2026-04-23 16:09 428K
20260423T12Z_MSC_GDPS_RelativeHumidity_IsbL-0050_LatLon0.15_PT045H.grib2 2026-04-23 16:09 333K
20260423T12Z_MSC_GDPS_RelativeHumidity_IsbL-0100_LatLon0.15_PT045H.grib2 2026-04-23 16:09 495K
20260423T12Z_MSC_GDPS_RelativeHumidity_IsbL-0150_LatLon0.15_PT045H.grib2 2026-04-23 16:09 652K
20260423T12Z_MSC_GDPS_RelativeHumidity_IsbL-0175_LatLon0.15_PT045H.grib2 2026-04-23 16:09 773K
20260423T12Z_MSC_GDPS_RelativeHumidity_IsbL-0200_LatLon0.15_PT045H.grib2 2026-04-23 16:09 692K
20260423T12Z_MSC_GDPS_RelativeHumidity_IsbL-0225_LatLon0.15_PT045H.grib2 2026-04-23 16:09 780K
20260423T12Z_MSC_GDPS_RelativeHumidity_IsbL-0250_LatLon0.15_PT045H.grib2 2026-04-23 16:09 862K
20260423T12Z_MSC_GDPS_RelativeHumidity_IsbL-0275_LatLon0.15_PT045H.grib2 2026-04-23 16:09 890K
20260423T12Z_MSC_GDPS_RelativeHumidity_IsbL-0300_LatLon0.15_PT045H.grib2 2026-04-23 16:09 939K
20260423T12Z_MSC_GDPS_RelativeHumidity_IsbL-0350_LatLon0.15_PT045H.grib2 2026-04-23 16:09 964K
20260423T12Z_MSC_GDPS_RelativeHumidity_IsbL-0400_LatLon0.15_PT045H.grib2 2026-04-23 16:09 1.0M
20260423T12Z_MSC_GDPS_RelativeHumidity_IsbL-0450_LatLon0.15_PT045H.grib2 2026-04-23 16:09 1.0M
20260423T12Z_MSC_GDPS_RelativeHumidity_IsbL-0500_LatLon0.15_PT045H.grib2 2026-04-23 16:09 1.0M
20260423T12Z_MSC_GDPS_RelativeHumidity_IsbL-0550_LatLon0.15_PT045H.grib2 2026-04-23 16:09 1.0M
20260423T12Z_MSC_GDPS_RelativeHumidity_IsbL-0600_LatLon0.15_PT045H.grib2 2026-04-23 16:09 1.1M
20260423T12Z_MSC_GDPS_RelativeHumidity_IsbL-0650_LatLon0.15_PT045H.grib2 2026-04-23 16:09 1.1M
20260423T12Z_MSC_GDPS_RelativeHumidity_IsbL-0700_LatLon0.15_PT045H.grib2 2026-04-23 16:09 1.1M
20260423T12Z_MSC_GDPS_RelativeHumidity_IsbL-0750_LatLon0.15_PT045H.grib2 2026-04-23 16:09 1.2M
20260423T12Z_MSC_GDPS_RelativeHumidity_IsbL-0800_LatLon0.15_PT045H.grib2 2026-04-23 16:09 1.3M
20260423T12Z_MSC_GDPS_RelativeHumidity_IsbL-0850_LatLon0.15_PT045H.grib2 2026-04-23 16:09 1.3M
20260423T12Z_MSC_GDPS_RelativeHumidity_IsbL-0875_LatLon0.15_PT045H.grib2 2026-04-23 16:09 1.3M
20260423T12Z_MSC_GDPS_RelativeHumidity_IsbL-0900_LatLon0.15_PT045H.grib2 2026-04-23 16:09 1.2M
20260423T12Z_MSC_GDPS_RelativeHumidity_IsbL-0925_LatLon0.15_PT045H.grib2 2026-04-23 16:09 1.2M
20260423T12Z_MSC_GDPS_RelativeHumidity_IsbL-0950_LatLon0.15_PT045H.grib2 2026-04-23 16:09 1.2M
20260423T12Z_MSC_GDPS_RelativeHumidity_IsbL-0970_LatLon0.15_PT045H.grib2 2026-04-23 16:09 1.2M
20260423T12Z_MSC_GDPS_RelativeHumidity_IsbL-0985_LatLon0.15_PT045H.grib2 2026-04-23 16:09 1.1M
20260423T12Z_MSC_GDPS_RelativeHumidity_IsbL-1000_LatLon0.15_PT045H.grib2 2026-04-23 16:09 1.1M
20260423T12Z_MSC_GDPS_RelativeHumidity_IsbL-1015_LatLon0.15_PT045H.grib2 2026-04-23 16:09 1.0M
20260423T12Z_MSC_GDPS_RelativeVorticity_IsbL-0200_LatLon0.15_PT045H.grib2 2026-04-23 16:09 1.5M
20260423T12Z_MSC_GDPS_RelativeVorticity_IsbL-0250_LatLon0.15_PT045H.grib2 2026-04-23 16:09 1.3M
20260423T12Z_MSC_GDPS_RelativeVorticity_IsbL-0500_LatLon0.15_PT045H.grib2 2026-04-23 16:09 1.5M
20260423T12Z_MSC_GDPS_RelativeVorticity_IsbL-0700_LatLon0.15_PT045H.grib2 2026-04-23 16:09 1.3M
20260423T12Z_MSC_GDPS_RelativeVorticity_IsbL-0850_LatLon0.15_PT045H.grib2 2026-04-23 16:09 1.6M
20260423T12Z_MSC_GDPS_Runoff-Accum_Sfc_LatLon0.15_PT045H.grib2 2026-04-23 16:09 104K
20260423T12Z_MSC_GDPS_SensibleHeatNetFlux_Sfc_LatLon0.15_PT045H.grib2 2026-04-23 16:09 656K
20260423T12Z_MSC_GDPS_ShowalterIndex_IsbL-0500_LatLon0.15_PT045H.grib2 2026-04-23 16:09 6.2M
20260423T12Z_MSC_GDPS_Snow-Accum1h_Sfc_LatLon0.15_PT045H.grib2 2026-04-23 16:09 1.1M
20260423T12Z_MSC_GDPS_Snow-Accum3h_Sfc_LatLon0.15_PT045H.grib2 2026-04-23 16:09 1.1M
20260423T12Z_MSC_GDPS_Snow-Accum_Sfc_LatLon0.15_PT045H.grib2 2026-04-23 16:09 1.8M
20260423T12Z_MSC_GDPS_SnowDensity_Sfc_LatLon0.15_PT045H.grib2 2026-04-23 16:09 264K
20260423T12Z_MSC_GDPS_SnowDepth_Sfc_LatLon0.15_PT045H.grib2 2026-04-23 16:09 1.8M
20260423T12Z_MSC_GDPS_SoilTemp_DBS-0to10cm_LatLon0.15_PT045H.grib2 2026-04-23 16:09 501K
20260423T12Z_MSC_GDPS_SoilTemp_Sfc_LatLon0.15_PT045H.grib2 2026-04-23 16:09 579K
20260423T12Z_MSC_GDPS_SoilVolumetricIceContent_Sfc_LatLon0.15_PT045H.grib2 2026-04-23 16:09 215K
20260423T12Z_MSC_GDPS_SoilVolumetricWaterContent_DBS-0to10cm_LatLon0.15_PT045H.grib2 2026-04-23 16:09 561K
20260423T12Z_MSC_GDPS_SoilVolumetricWaterContent_DBS-0to1cm_LatLon0.15_PT045H.grib2 2026-04-23 16:09 650K
20260423T12Z_MSC_GDPS_SpecificHumidity_AGL-120m_LatLon0.15_PT045H.grib2 2026-04-23 16:09 1.1M
20260423T12Z_MSC_GDPS_SpecificHumidity_AGL-2m_LatLon0.15_PT045H.grib2 2026-04-23 16:09 1.2M
20260423T12Z_MSC_GDPS_SpecificHumidity_AGL-40m_LatLon0.15_PT045H.grib2 2026-04-23 16:09 1.1M
20260423T12Z_MSC_GDPS_SpecificHumidity_AGL-80m_LatLon0.15_PT045H.grib2 2026-04-23 16:09 1.1M
20260423T12Z_MSC_GDPS_SpecificHumidity_IsbL-0001_LatLon0.15_PT045H.grib2 2026-04-23 16:09 1.0M
20260423T12Z_MSC_GDPS_SpecificHumidity_IsbL-0005_LatLon0.15_PT045H.grib2 2026-04-23 16:09 1.2M
20260423T12Z_MSC_GDPS_SpecificHumidity_IsbL-0010_LatLon0.15_PT045H.grib2 2026-04-23 16:09 1.3M
20260423T12Z_MSC_GDPS_SpecificHumidity_IsbL-0020_LatLon0.15_PT045H.grib2 2026-04-23 16:09 1.4M
20260423T12Z_MSC_GDPS_SpecificHumidity_IsbL-0030_LatLon0.15_PT045H.grib2 2026-04-23 16:09 1.7M
20260423T12Z_MSC_GDPS_SpecificHumidity_IsbL-0050_LatLon0.15_PT045H.grib2 2026-04-23 16:09 1.4M
20260423T12Z_MSC_GDPS_SpecificHumidity_IsbL-0100_LatLon0.15_PT045H.grib2 2026-04-23 16:09 1.3M
20260423T12Z_MSC_GDPS_SpecificHumidity_IsbL-0150_LatLon0.15_PT045H.grib2 2026-04-23 16:09 1.0M
20260423T12Z_MSC_GDPS_SpecificHumidity_IsbL-0175_LatLon0.15_PT045H.grib2 2026-04-23 16:09 1.3M
20260423T12Z_MSC_GDPS_SpecificHumidity_IsbL-0200_LatLon0.15_PT045H.grib2 2026-04-23 16:09 1.3M
20260423T12Z_MSC_GDPS_SpecificHumidity_IsbL-0225_LatLon0.15_PT045H.grib2 2026-04-23 16:09 1.3M
20260423T12Z_MSC_GDPS_SpecificHumidity_IsbL-0250_LatLon0.15_PT045H.grib2 2026-04-23 16:09 1.4M
20260423T12Z_MSC_GDPS_SpecificHumidity_IsbL-0275_LatLon0.15_PT045H.grib2 2026-04-23 16:09 1.3M
20260423T12Z_MSC_GDPS_SpecificHumidity_IsbL-0300_LatLon0.15_PT045H.grib2 2026-04-23 16:09 1.2M
20260423T12Z_MSC_GDPS_SpecificHumidity_IsbL-0350_LatLon0.15_PT045H.grib2 2026-04-23 16:09 1.5M
20260423T12Z_MSC_GDPS_SpecificHumidity_IsbL-0400_LatLon0.15_PT045H.grib2 2026-04-23 16:09 1.5M
20260423T12Z_MSC_GDPS_SpecificHumidity_IsbL-0450_LatLon0.15_PT045H.grib2 2026-04-23 16:09 1.6M
20260423T12Z_MSC_GDPS_SpecificHumidity_IsbL-0500_LatLon0.15_PT045H.grib2 2026-04-23 16:09 1.4M
20260423T12Z_MSC_GDPS_SpecificHumidity_IsbL-0550_LatLon0.15_PT045H.grib2 2026-04-23 16:09 1.6M
20260423T12Z_MSC_GDPS_SpecificHumidity_IsbL-0600_LatLon0.15_PT045H.grib2 2026-04-23 16:09 1.7M
20260423T12Z_MSC_GDPS_SpecificHumidity_IsbL-0650_LatLon0.15_PT045H.grib2 2026-04-23 16:09 1.5M
20260423T12Z_MSC_GDPS_SpecificHumidity_IsbL-0700_LatLon0.15_PT045H.grib2 2026-04-23 16:09 1.6M
20260423T12Z_MSC_GDPS_SpecificHumidity_IsbL-0750_LatLon0.15_PT045H.grib2 2026-04-23 16:09 1.7M
20260423T12Z_MSC_GDPS_SpecificHumidity_IsbL-0800_LatLon0.15_PT045H.grib2 2026-04-23 16:09 1.8M
20260423T12Z_MSC_GDPS_SpecificHumidity_IsbL-0850_LatLon0.15_PT045H.grib2 2026-04-23 16:09 1.9M
20260423T12Z_MSC_GDPS_SpecificHumidity_IsbL-0875_LatLon0.15_PT045H.grib2 2026-04-23 16:09 1.9M
20260423T12Z_MSC_GDPS_SpecificHumidity_IsbL-0900_LatLon0.15_PT045H.grib2 2026-04-23 16:09 1.9M
20260423T12Z_MSC_GDPS_SpecificHumidity_IsbL-0925_LatLon0.15_PT045H.grib2 2026-04-23 16:09 1.6M
20260423T12Z_MSC_GDPS_SpecificHumidity_IsbL-0950_LatLon0.15_PT045H.grib2 2026-04-23 16:09 1.5M
20260423T12Z_MSC_GDPS_SpecificHumidity_IsbL-0970_LatLon0.15_PT045H.grib2 2026-04-23 16:09 1.5M
20260423T12Z_MSC_GDPS_SpecificHumidity_IsbL-0985_LatLon0.15_PT045H.grib2 2026-04-23 16:09 1.5M
20260423T12Z_MSC_GDPS_SpecificHumidity_IsbL-1000_LatLon0.15_PT045H.grib2 2026-04-23 16:09 1.5M
20260423T12Z_MSC_GDPS_SpecificHumidity_IsbL-1015_LatLon0.15_PT045H.grib2 2026-04-23 16:09 1.4M
20260423T12Z_MSC_GDPS_SpecificHumidity_Sfc_LatLon0.15_PT045H.grib2 2026-04-23 16:09 675K
20260423T12Z_MSC_GDPS_Thickness_IsbL-0850to0700_LatLon0.15_PT045H.grib2 2026-04-23 16:09 462K
20260423T12Z_MSC_GDPS_Thickness_IsbL-1000to0500_LatLon0.15_PT045H.grib2 2026-04-23 16:09 367K
20260423T12Z_MSC_GDPS_Thickness_IsbL-1000to0850_LatLon0.15_PT045H.grib2 2026-04-23 16:09 488K
20260423T12Z_MSC_GDPS_TotalCloudCover_Sfc_LatLon0.15_PT045H.grib2 2026-04-23 16:09 840K
20260423T12Z_MSC_GDPS_TotalTotalsIndex_Sfc_LatLon0.15_PT045H.grib2 2026-04-23 16:09 6.2M
20260423T12Z_MSC_GDPS_UVIndex-ClearSky_Sfc_LatLon0.15_PT045H.grib2 2026-04-23 16:51 1.1M
20260423T12Z_MSC_GDPS_UVIndex_Sfc_LatLon0.15_PT045H.grib2 2026-04-23 16:51 1.5M
20260423T12Z_MSC_GDPS_UpwardLongwaveRadiationFlux_NTAtm_LatLon0.15_PT045H.grib2 2026-04-23 16:09 842K
20260423T12Z_MSC_GDPS_VerticalVelocity_IsbL-0200_LatLon0.15_PT045H.grib2 2026-04-23 16:09 935K
20260423T12Z_MSC_GDPS_VerticalVelocity_IsbL-0250_LatLon0.15_PT045H.grib2 2026-04-23 16:09 1.0M
20260423T12Z_MSC_GDPS_VerticalVelocity_IsbL-0500_LatLon0.15_PT045H.grib2 2026-04-23 16:09 1.0M
20260423T12Z_MSC_GDPS_VerticalVelocity_IsbL-0600_LatLon0.15_PT045H.grib2 2026-04-23 16:09 1.1M
20260423T12Z_MSC_GDPS_VerticalVelocity_IsbL-0700_LatLon0.15_PT045H.grib2 2026-04-23 16:09 1.1M
20260423T12Z_MSC_GDPS_VerticalVelocity_IsbL-0850_LatLon0.15_PT045H.grib2 2026-04-23 16:09 1.6M
20260423T12Z_MSC_GDPS_WindChill_Sfc_LatLon0.15_PT045H.grib2 2026-04-23 16:09 5.3M
20260423T12Z_MSC_GDPS_WindDir_AGL-10m_LatLon0.15_PT045H.grib2 2026-04-23 16:09 1.3M
20260423T12Z_MSC_GDPS_WindDir_AGL-120m_LatLon0.15_PT045H.grib2 2026-04-23 16:09 1.4M
20260423T12Z_MSC_GDPS_WindDir_AGL-40m_LatLon0.15_PT045H.grib2 2026-04-23 16:09 1.4M
20260423T12Z_MSC_GDPS_WindDir_AGL-80m_LatLon0.15_PT045H.grib2 2026-04-23 16:09 1.4M
20260423T12Z_MSC_GDPS_WindDir_IsbL-0001_LatLon0.15_PT045H.grib2 2026-04-23 16:09 650K
20260423T12Z_MSC_GDPS_WindDir_IsbL-0005_LatLon0.15_PT045H.grib2 2026-04-23 16:09 804K
20260423T12Z_MSC_GDPS_WindDir_IsbL-0010_LatLon0.15_PT045H.grib2 2026-04-23 16:09 846K
20260423T12Z_MSC_GDPS_WindDir_IsbL-0020_LatLon0.15_PT045H.grib2 2026-04-23 16:09 949K
20260423T12Z_MSC_GDPS_WindDir_IsbL-0030_LatLon0.15_PT045H.grib2 2026-04-23 16:09 922K
20260423T12Z_MSC_GDPS_WindDir_IsbL-0050_LatLon0.15_PT045H.grib2 2026-04-23 16:09 951K
20260423T12Z_MSC_GDPS_WindDir_IsbL-0100_LatLon0.15_PT045H.grib2 2026-04-23 16:09 1.0M
20260423T12Z_MSC_GDPS_WindDir_IsbL-0150_LatLon0.15_PT045H.grib2 2026-04-23 16:09 1.0M
20260423T12Z_MSC_GDPS_WindDir_IsbL-0175_LatLon0.15_PT045H.grib2 2026-04-23 16:09 1.1M
20260423T12Z_MSC_GDPS_WindDir_IsbL-0200_LatLon0.15_PT045H.grib2 2026-04-23 16:09 1.1M
20260423T12Z_MSC_GDPS_WindDir_IsbL-0225_LatLon0.15_PT045H.grib2 2026-04-23 16:09 1.1M
20260423T12Z_MSC_GDPS_WindDir_IsbL-0250_LatLon0.15_PT045H.grib2 2026-04-23 16:09 1.1M
20260423T12Z_MSC_GDPS_WindDir_IsbL-0275_LatLon0.15_PT045H.grib2 2026-04-23 16:09 1.2M
20260423T12Z_MSC_GDPS_WindDir_IsbL-0300_LatLon0.15_PT045H.grib2 2026-04-23 16:09 1.2M
20260423T12Z_MSC_GDPS_WindDir_IsbL-0350_LatLon0.15_PT045H.grib2 2026-04-23 16:09 1.2M
20260423T12Z_MSC_GDPS_WindDir_IsbL-0400_LatLon0.15_PT045H.grib2 2026-04-23 16:09 1.2M
20260423T12Z_MSC_GDPS_WindDir_IsbL-0450_LatLon0.15_PT045H.grib2 2026-04-23 16:09 1.3M
20260423T12Z_MSC_GDPS_WindDir_IsbL-0500_LatLon0.15_PT045H.grib2 2026-04-23 16:09 1.3M
20260423T12Z_MSC_GDPS_WindDir_IsbL-0550_LatLon0.15_PT045H.grib2 2026-04-23 16:09 1.4M
20260423T12Z_MSC_GDPS_WindDir_IsbL-0600_LatLon0.15_PT045H.grib2 2026-04-23 16:09 1.5M
20260423T12Z_MSC_GDPS_WindDir_IsbL-0650_LatLon0.15_PT045H.grib2 2026-04-23 16:09 1.5M
20260423T12Z_MSC_GDPS_WindDir_IsbL-0700_LatLon0.15_PT045H.grib2 2026-04-23 16:09 1.6M
20260423T12Z_MSC_GDPS_WindDir_IsbL-0750_LatLon0.15_PT045H.grib2 2026-04-23 16:09 1.7M
20260423T12Z_MSC_GDPS_WindDir_IsbL-0800_LatLon0.15_PT045H.grib2 2026-04-23 16:09 1.8M
20260423T12Z_MSC_GDPS_WindDir_IsbL-0850_LatLon0.15_PT045H.grib2 2026-04-23 16:09 1.9M
20260423T12Z_MSC_GDPS_WindDir_IsbL-0875_LatLon0.15_PT045H.grib2 2026-04-23 16:09 1.9M
20260423T12Z_MSC_GDPS_WindDir_IsbL-0900_LatLon0.15_PT045H.grib2 2026-04-23 16:09 2.0M
20260423T12Z_MSC_GDPS_WindDir_IsbL-0925_LatLon0.15_PT045H.grib2 2026-04-23 16:09 2.0M
20260423T12Z_MSC_GDPS_WindDir_IsbL-0950_LatLon0.15_PT045H.grib2 2026-04-23 16:09 2.0M
20260423T12Z_MSC_GDPS_WindDir_IsbL-0970_LatLon0.15_PT045H.grib2 2026-04-23 16:09 2.0M
20260423T12Z_MSC_GDPS_WindDir_IsbL-0985_LatLon0.15_PT045H.grib2 2026-04-23 16:09 2.0M
20260423T12Z_MSC_GDPS_WindDir_IsbL-1000_LatLon0.15_PT045H.grib2 2026-04-23 16:09 2.0M
20260423T12Z_MSC_GDPS_WindDir_IsbL-1015_LatLon0.15_PT045H.grib2 2026-04-23 16:09 2.0M
20260423T12Z_MSC_GDPS_WindGust-Max_AGL-10m_LatLon0.15_PT045H.grib2 2026-04-23 16:09 2.1M
20260423T12Z_MSC_GDPS_WindGust-Min_AGL-10m_LatLon0.15_PT045H.grib2 2026-04-23 16:09 2.2M
20260423T12Z_MSC_GDPS_WindGust_AGL-10m_LatLon0.15_PT045H.grib2 2026-04-23 16:09 2.2M
20260423T12Z_MSC_GDPS_WindSpeed_AGL-10m_LatLon0.15_PT045H.grib2 2026-04-23 16:09 1.1M
20260423T12Z_MSC_GDPS_WindSpeed_AGL-120m_LatLon0.15_PT045H.grib2 2026-04-23 16:09 1.2M
20260423T12Z_MSC_GDPS_WindSpeed_AGL-40m_LatLon0.15_PT045H.grib2 2026-04-23 16:09 1.2M
20260423T12Z_MSC_GDPS_WindSpeed_AGL-80m_LatLon0.15_PT045H.grib2 2026-04-23 16:09 1.2M
20260423T12Z_MSC_GDPS_WindSpeed_IsbL-0001_LatLon0.15_PT045H.grib2 2026-04-23 16:09 640K
20260423T12Z_MSC_GDPS_WindSpeed_IsbL-0005_LatLon0.15_PT045H.grib2 2026-04-23 16:09 692K
20260423T12Z_MSC_GDPS_WindSpeed_IsbL-0010_LatLon0.15_PT045H.grib2 2026-04-23 16:09 627K
20260423T12Z_MSC_GDPS_WindSpeed_IsbL-0020_LatLon0.15_PT045H.grib2 2026-04-23 16:09 860K
20260423T12Z_MSC_GDPS_WindSpeed_IsbL-0030_LatLon0.15_PT045H.grib2 2026-04-23 16:09 861K
20260423T12Z_MSC_GDPS_WindSpeed_IsbL-0050_LatLon0.15_PT045H.grib2 2026-04-23 16:09 1.0M
20260423T12Z_MSC_GDPS_WindSpeed_IsbL-0100_LatLon0.15_PT045H.grib2 2026-04-23 16:09 1.1M
20260423T12Z_MSC_GDPS_WindSpeed_IsbL-0150_LatLon0.15_PT045H.grib2 2026-04-23 16:09 1.0M
20260423T12Z_MSC_GDPS_WindSpeed_IsbL-0175_LatLon0.15_PT045H.grib2 2026-04-23 16:09 1.0M
20260423T12Z_MSC_GDPS_WindSpeed_IsbL-0200_LatLon0.15_PT045H.grib2 2026-04-23 16:09 1.1M
20260423T12Z_MSC_GDPS_WindSpeed_IsbL-0225_LatLon0.15_PT045H.grib2 2026-04-23 16:09 1.1M
20260423T12Z_MSC_GDPS_WindSpeed_IsbL-0250_LatLon0.15_PT045H.grib2 2026-04-23 16:09 1.1M
20260423T12Z_MSC_GDPS_WindSpeed_IsbL-0275_LatLon0.15_PT045H.grib2 2026-04-23 16:09 1.1M
20260423T12Z_MSC_GDPS_WindSpeed_IsbL-0300_LatLon0.15_PT045H.grib2 2026-04-23 16:09 1.1M
20260423T12Z_MSC_GDPS_WindSpeed_IsbL-0350_LatLon0.15_PT045H.grib2 2026-04-23 16:09 1.1M
20260423T12Z_MSC_GDPS_WindSpeed_IsbL-0400_LatLon0.15_PT045H.grib2 2026-04-23 16:09 1.1M
20260423T12Z_MSC_GDPS_WindSpeed_IsbL-0450_LatLon0.15_PT045H.grib2 2026-04-23 16:09 1.1M
20260423T12Z_MSC_GDPS_WindSpeed_IsbL-0500_LatLon0.15_PT045H.grib2 2026-04-23 16:09 1.1M
20260423T12Z_MSC_GDPS_WindSpeed_IsbL-0550_LatLon0.15_PT045H.grib2 2026-04-23 16:09 1.1M
20260423T12Z_MSC_GDPS_WindSpeed_IsbL-0600_LatLon0.15_PT045H.grib2 2026-04-23 16:09 1.1M
20260423T12Z_MSC_GDPS_WindSpeed_IsbL-0650_LatLon0.15_PT045H.grib2 2026-04-23 16:09 1.4M
20260423T12Z_MSC_GDPS_WindSpeed_IsbL-0700_LatLon0.15_PT045H.grib2 2026-04-23 16:09 1.5M
20260423T12Z_MSC_GDPS_WindSpeed_IsbL-0750_LatLon0.15_PT045H.grib2 2026-04-23 16:09 1.6M
20260423T12Z_MSC_GDPS_WindSpeed_IsbL-0800_LatLon0.15_PT045H.grib2 2026-04-23 16:09 1.8M
20260423T12Z_MSC_GDPS_WindSpeed_IsbL-0850_LatLon0.15_PT045H.grib2 2026-04-23 16:09 1.7M
20260423T12Z_MSC_GDPS_WindSpeed_IsbL-0875_LatLon0.15_PT045H.grib2 2026-04-23 16:09 1.8M
20260423T12Z_MSC_GDPS_WindSpeed_IsbL-0900_LatLon0.15_PT045H.grib2 2026-04-23 16:09 1.8M
20260423T12Z_MSC_GDPS_WindSpeed_IsbL-0925_LatLon0.15_PT045H.grib2 2026-04-23 16:09 1.9M
20260423T12Z_MSC_GDPS_WindSpeed_IsbL-0950_LatLon0.15_PT045H.grib2 2026-04-23 16:09 1.9M
20260423T12Z_MSC_GDPS_WindSpeed_IsbL-0970_LatLon0.15_PT045H.grib2 2026-04-23 16:09 1.9M
20260423T12Z_MSC_GDPS_WindSpeed_IsbL-0985_LatLon0.15_PT045H.grib2 2026-04-23 16:09 1.9M
20260423T12Z_MSC_GDPS_WindSpeed_IsbL-1000_LatLon0.15_PT045H.grib2 2026-04-23 16:09 1.9M
20260423T12Z_MSC_GDPS_WindSpeed_IsbL-1015_LatLon0.15_PT045H.grib2 2026-04-23 16:09 1.8M
20260423T12Z_MSC_GDPS_WindU_AGL-10m_LatLon0.15_PT045H.grib2 2026-04-23 16:09 1.3M
20260423T12Z_MSC_GDPS_WindU_AGL-120m_LatLon0.15_PT045H.grib2 2026-04-23 16:09 967K
20260423T12Z_MSC_GDPS_WindU_AGL-40m_LatLon0.15_PT045H.grib2 2026-04-23 16:09 964K
20260423T12Z_MSC_GDPS_WindU_AGL-80m_LatLon0.15_PT045H.grib2 2026-04-23 16:09 967K
20260423T12Z_MSC_GDPS_WindU_IsbL-0001_LatLon0.15_PT045H.grib2 2026-04-23 16:09 502K
20260423T12Z_MSC_GDPS_WindU_IsbL-0005_LatLon0.15_PT045H.grib2 2026-04-23 16:09 692K
20260423T12Z_MSC_GDPS_WindU_IsbL-0010_LatLon0.15_PT045H.grib2 2026-04-23 16:09 706K
20260423T12Z_MSC_GDPS_WindU_IsbL-0020_LatLon0.15_PT045H.grib2 2026-04-23 16:09 737K
20260423T12Z_MSC_GDPS_WindU_IsbL-0030_LatLon0.15_PT045H.grib2 2026-04-23 16:09 739K
20260423T12Z_MSC_GDPS_WindU_IsbL-0050_LatLon0.15_PT045H.grib2 2026-04-23 16:09 700K
20260423T12Z_MSC_GDPS_WindU_IsbL-0100_LatLon0.15_PT045H.grib2 2026-04-23 16:09 910K
20260423T12Z_MSC_GDPS_WindU_IsbL-0150_LatLon0.15_PT045H.grib2 2026-04-23 16:09 1.0M
20260423T12Z_MSC_GDPS_WindU_IsbL-0175_LatLon0.15_PT045H.grib2 2026-04-23 16:09 1.0M
20260423T12Z_MSC_GDPS_WindU_IsbL-0200_LatLon0.15_PT045H.grib2 2026-04-23 16:09 844K
20260423T12Z_MSC_GDPS_WindU_IsbL-0225_LatLon0.15_PT045H.grib2 2026-04-23 16:09 854K
20260423T12Z_MSC_GDPS_WindU_IsbL-0250_LatLon0.15_PT045H.grib2 2026-04-23 16:09 855K
20260423T12Z_MSC_GDPS_WindU_IsbL-0275_LatLon0.15_PT045H.grib2 2026-04-23 16:09 880K
20260423T12Z_MSC_GDPS_WindU_IsbL-0300_LatLon0.15_PT045H.grib2 2026-04-23 16:09 932K
20260423T12Z_MSC_GDPS_WindU_IsbL-0350_LatLon0.15_PT045H.grib2 2026-04-23 16:09 891K
20260423T12Z_MSC_GDPS_WindU_IsbL-0400_LatLon0.15_PT045H.grib2 2026-04-23 16:09 890K
20260423T12Z_MSC_GDPS_WindU_IsbL-0450_LatLon0.15_PT045H.grib2 2026-04-23 16:09 893K
20260423T12Z_MSC_GDPS_WindU_IsbL-0500_LatLon0.15_PT045H.grib2 2026-04-23 16:09 1.1M
20260423T12Z_MSC_GDPS_WindU_IsbL-0550_LatLon0.15_PT045H.grib2 2026-04-23 16:09 1.1M
20260423T12Z_MSC_GDPS_WindU_IsbL-0600_LatLon0.15_PT045H.grib2 2026-04-23 16:09 1.1M
20260423T12Z_MSC_GDPS_WindU_IsbL-0650_LatLon0.15_PT045H.grib2 2026-04-23 16:09 1.2M
20260423T12Z_MSC_GDPS_WindU_IsbL-0700_LatLon0.15_PT045H.grib2 2026-04-23 16:09 1.2M
20260423T12Z_MSC_GDPS_WindU_IsbL-0750_LatLon0.15_PT045H.grib2 2026-04-23 16:09 1.3M
20260423T12Z_MSC_GDPS_WindU_IsbL-0800_LatLon0.15_PT045H.grib2 2026-04-23 16:09 1.4M
20260423T12Z_MSC_GDPS_WindU_IsbL-0850_LatLon0.15_PT045H.grib2 2026-04-23 16:09 1.4M
20260423T12Z_MSC_GDPS_WindU_IsbL-0875_LatLon0.15_PT045H.grib2 2026-04-23 16:09 1.4M
20260423T12Z_MSC_GDPS_WindU_IsbL-0900_LatLon0.15_PT045H.grib2 2026-04-23 16:09 1.5M
20260423T12Z_MSC_GDPS_WindU_IsbL-0925_LatLon0.15_PT045H.grib2 2026-04-23 16:09 1.5M
20260423T12Z_MSC_GDPS_WindU_IsbL-0950_LatLon0.15_PT045H.grib2 2026-04-23 16:09 1.4M
20260423T12Z_MSC_GDPS_WindU_IsbL-0970_LatLon0.15_PT045H.grib2 2026-04-23 16:09 1.4M
20260423T12Z_MSC_GDPS_WindU_IsbL-0985_LatLon0.15_PT045H.grib2 2026-04-23 16:09 1.4M
20260423T12Z_MSC_GDPS_WindU_IsbL-1000_LatLon0.15_PT045H.grib2 2026-04-23 16:09 1.4M
20260423T12Z_MSC_GDPS_WindU_IsbL-1015_LatLon0.15_PT045H.grib2 2026-04-23 16:09 1.3M
20260423T12Z_MSC_GDPS_WindV_AGL-10m_LatLon0.15_PT045H.grib2 2026-04-23 16:09 1.6M
20260423T12Z_MSC_GDPS_WindV_AGL-120m_LatLon0.15_PT045H.grib2 2026-04-23 16:09 966K
20260423T12Z_MSC_GDPS_WindV_AGL-40m_LatLon0.15_PT045H.grib2 2026-04-23 16:09 1.2M
20260423T12Z_MSC_GDPS_WindV_AGL-80m_LatLon0.15_PT045H.grib2 2026-04-23 16:09 967K
20260423T12Z_MSC_GDPS_WindV_IsbL-0001_LatLon0.15_PT045H.grib2 2026-04-23 16:09 551K
20260423T12Z_MSC_GDPS_WindV_IsbL-0005_LatLon0.15_PT045H.grib2 2026-04-23 16:09 781K
20260423T12Z_MSC_GDPS_WindV_IsbL-0010_LatLon0.15_PT045H.grib2 2026-04-23 16:09 883K
20260423T12Z_MSC_GDPS_WindV_IsbL-0020_LatLon0.15_PT045H.grib2 2026-04-23 16:09 936K
20260423T12Z_MSC_GDPS_WindV_IsbL-0030_LatLon0.15_PT045H.grib2 2026-04-23 16:09 850K
20260423T12Z_MSC_GDPS_WindV_IsbL-0050_LatLon0.15_PT045H.grib2 2026-04-23 16:09 906K
20260423T12Z_MSC_GDPS_WindV_IsbL-0100_LatLon0.15_PT045H.grib2 2026-04-23 16:09 1.0M
20260423T12Z_MSC_GDPS_WindV_IsbL-0150_LatLon0.15_PT045H.grib2 2026-04-23 16:09 926K
20260423T12Z_MSC_GDPS_WindV_IsbL-0175_LatLon0.15_PT045H.grib2 2026-04-23 16:09 1.0M
20260423T12Z_MSC_GDPS_WindV_IsbL-0200_LatLon0.15_PT045H.grib2 2026-04-23 16:09 1.0M
20260423T12Z_MSC_GDPS_WindV_IsbL-0225_LatLon0.15_PT045H.grib2 2026-04-23 16:09 848K
20260423T12Z_MSC_GDPS_WindV_IsbL-0250_LatLon0.15_PT045H.grib2 2026-04-23 16:09 848K
20260423T12Z_MSC_GDPS_WindV_IsbL-0275_LatLon0.15_PT045H.grib2 2026-04-23 16:09 930K
20260423T12Z_MSC_GDPS_WindV_IsbL-0300_LatLon0.15_PT045H.grib2 2026-04-23 16:09 922K
20260423T12Z_MSC_GDPS_WindV_IsbL-0350_LatLon0.15_PT045H.grib2 2026-04-23 16:09 879K
20260423T12Z_MSC_GDPS_WindV_IsbL-0400_LatLon0.15_PT045H.grib2 2026-04-23 16:09 879K
20260423T12Z_MSC_GDPS_WindV_IsbL-0450_LatLon0.15_PT045H.grib2 2026-04-23 16:09 1.1M
20260423T12Z_MSC_GDPS_WindV_IsbL-0500_LatLon0.15_PT045H.grib2 2026-04-23 16:09 1.1M
20260423T12Z_MSC_GDPS_WindV_IsbL-0550_LatLon0.15_PT045H.grib2 2026-04-23 16:09 1.1M
20260423T12Z_MSC_GDPS_WindV_IsbL-0600_LatLon0.15_PT045H.grib2 2026-04-23 16:09 1.1M
20260423T12Z_MSC_GDPS_WindV_IsbL-0650_LatLon0.15_PT045H.grib2 2026-04-23 16:09 1.1M
20260423T12Z_MSC_GDPS_WindV_IsbL-0700_LatLon0.15_PT045H.grib2 2026-04-23 16:09 1.2M
20260423T12Z_MSC_GDPS_WindV_IsbL-0750_LatLon0.15_PT045H.grib2 2026-04-23 16:09 1.2M
20260423T12Z_MSC_GDPS_WindV_IsbL-0800_LatLon0.15_PT045H.grib2 2026-04-23 16:09 1.3M
20260423T12Z_MSC_GDPS_WindV_IsbL-0850_LatLon0.15_PT045H.grib2 2026-04-23 16:09 1.4M
20260423T12Z_MSC_GDPS_WindV_IsbL-0875_LatLon0.15_PT045H.grib2 2026-04-23 16:09 1.4M
20260423T12Z_MSC_GDPS_WindV_IsbL-0900_LatLon0.15_PT045H.grib2 2026-04-23 16:09 1.4M
20260423T12Z_MSC_GDPS_WindV_IsbL-0925_LatLon0.15_PT045H.grib2 2026-04-23 16:09 1.4M
20260423T12Z_MSC_GDPS_WindV_IsbL-0950_LatLon0.15_PT045H.grib2 2026-04-23 16:09 1.4M
20260423T12Z_MSC_GDPS_WindV_IsbL-0970_LatLon0.15_PT045H.grib2 2026-04-23 16:09 1.4M
20260423T12Z_MSC_GDPS_WindV_IsbL-0985_LatLon0.15_PT045H.grib2 2026-04-23 16:09 1.7M
20260423T12Z_MSC_GDPS_WindV_IsbL-1000_LatLon0.15_PT045H.grib2 2026-04-23 16:09 1.7M
20260423T12Z_MSC_GDPS_WindV_IsbL-1015_LatLon0.15_PT045H.grib2 2026-04-23 16:09 1.6M